Current weather by "City, St" or "zip code"  
 
Advertise Here

Current Conditions: Newton Municipal Airport - Earl Johnson Field, IA

Overcast


21.0 F

Last Updated on Jan 25 2021, 3:55 am CST
Humidity: 100%
Wind Speed: NE 12.7 mph
Barometer 30.01 in
Dewpoint: 21.2 F
Visibility: 9.00 mi
Precip: --
Heat Index: NA
Wind Chill: 9 F
Current conditions at:

Newton Municipal Airport - Earl Johnson Field, IA (KTNU)

Lat: 41.67014 Lon: 93.01902

Local Radar Image active severe weather and emergency alerts image image weather storm and storm spotter reports image weather observation monitoring service image
Local
Radar
Active
Alerts
Storm Reports Obs
Monitoring

Sign-up For Email & Text Message Weather Alert Notification Services


Advertise Here

Observation History for Newton Municipal Airport - Earl Johnson Field, IA


Time Wind
(mph)
Vis
(mi)
Weather Precip (in) Temperature (F) Relative
Humidity
Wind
Chill
(F)
Heat
Index
(F)
Pressure
Air Dwpt altimeter
(in)
sea level
(mb)
Rmks
3:55 am CST NE 12.7 9.00 Overcast -- 21.0 21.2 100% 9 NA 30.01 M
2:55 am CST NE 6.9 10.00 Overcast -- 21.0 21.2 100% 12 NA 30.03 M
1:55 am CST NE 6.9 10.00 Overcast -- 19.0 19.4 100% 10 NA 30.04 M
12:55 am CST NE 9.2 10.00 Overcast -- 18.0 15.8 93% 7 NA 30.05 M
11:55 pm CST NE 6.9 10.00 Overcast -- 18.0 15.8 93% 9 NA 30.08 M
10:55 pm CST NE 8.1 10.00 Partly Cloudy -- 19.0 17.6 93% 9 NA 30.08 M
9:55 pm CST NE 11.5 10.00 Fair -- 19.0 17.6 93% 7 NA 30.06 M
8:55 pm CST NE 9.2 10.00 Fair -- 19.0 19.4 100% 8 NA 30.06 M
7:55 pm CST NE 8.1 10.00 Fair -- 21.0 19.4 93% 11 NA 30.08 M
6:55 pm CST NE 4.6 10.00 Fair -- 21.0 21.2 100% 15 NA 30.09 M
5:55 pm CST N 6.9 10.00 Fair -- 23.0 21.2 93% 15 NA 30.08 M
4:55 pm CST N 5.8 10.00 Fair -- 25.0 23.0 93% 18 NA 30.08 M
3:55 pm CST NE 9.2 10.00 Fair -- 27.0 24.8 93% 18 NA 30.06 M
2:55 pm CST N 9.2 10.00 Fair -- 27.0 24.8 93% 18 NA 30.06 M
1:55 pm CST N 9.2 10.00 Overcast -- 27.0 26.6 100% 18 NA 30.06 M
12:55 pm CST N 11.5 10.00 Mostly Cloudy -- 28.0 26.6 93% 18 NA 30.06 M
11:55 am CST N 12.7 10.00 Mostly Cloudy -- 28.0 26.6 93% 17 NA 30.07 M
10:55 am CST N 13.8 10.00 Partly Cloudy -- 28.0 28.4 100% 17 NA 30.07 M
9:55 am CST N 9.2 4.00 Fog/Mist -- 28.0 28.4 100% 19 NA 30.07 M
8:55 am CST N 5.8 10.00 Overcast -- 28.0 28.4 100% 22 NA 30.05 M
7:55 am CST N 9.2 10.00 Overcast -- 27.0 26.6 100% 18 NA 30.03 M
6:55 am CST NE 5.8 10.00 Overcast -- 27.0 26.6 100% 20 NA 30.00 M
5:55 am CST N 0.0 10.00 Overcast -- 27.0 26.6 100% NA NA 29.99 M
4:55 am CST E 4.6 10.00 Overcast -- 28.0 26.6 93% 23 NA 29.98 M

Regional Weather Observation


Ames, Ames Municipal Airport, IA (KAMW)

Overcast
20.0 F

Ankeny Regional Airport, IA (KIKV)

Overcast
21.0 F

Des Moines International Airport, IA (KDSM)

Overcast
22.0 F

Grinnell Municipal Airfield, IA (KGGI)

Overcast
23.0 F

Boone Municipal, IA (KBNW)

Overcast
19.0 F

Knoxville, IA (KOXV)

Overcast
27.0 F